User: anonymous   Login
Location: Unspecified
(0.0000°N, 0.0000°E)
Time: 03:29:50
(UTC+00:00)
Language:

COSMOS 2463 - Orbit

View from above orbital plane
View from above orbital plane
View from above satellite
View from above satellite

Ground track
Ground track

The orbit data is extracted from the following two-line orbital elements,

1 36519U 10017A   19083.54811620  .00000011  00000-0 -38776-5 0  9990
2 36519  82.9637  30.1540 0034660 258.9006 100.8248 13.71434099445921
Epoch (UTC): 24 March 2019 13:09:17
Eccentricity: 0.0034660
inclination: 82.9637°
perigee height: 969 km
apogee height: 1020 km
right ascension of ascending node: 30.1540°
argument of perigee: 258.9006°
revolutions per day: 13.71434099
mean anomaly at epoch: 100.8248°
orbit number at epoch: 44592

The dashed part of the orbit path shows where the satellite is in the earth's shadow,  

DLR